TimeEST,TemperatureF,Dew PointF,Humidity,Sea Level PressureIn,VisibilityMPH,Wind Direction,Wind SpeedMPH,Gust SpeedMPH,PrecipitationIn,Events,Conditions,WindDirDegrees,DateUTC
12:15 AM,54.5,51.1,88,30.41,10.0,NE,4.6,-,N/A,,Overcast,40,2013-11-06 05:15:00
12:35 AM,54.5,51.3,89,30.40,10.0,NE,4.6,-,N/A,,Overcast,40,2013-11-06 05:35:00
12:55 AM,54.5,51.8,91,30.40,10.0,NNE,5.8,-,N/A,,Overcast,30,2013-11-06 05:55:00
1:35 AM,54.5,51.8,91,30.39,10.0,NE,5.8,-,N/A,,Overcast,40,2013-11-06 06:35:00
1:55 AM,54.0,51.8,92,30.38,10.0,NE,4.6,-,N/A,,Overcast,40,2013-11-06 06:55:00
2:15 AM,53.8,51.8,93,30.38,10.0,NE,4.6,-,N/A,,Overcast,50,2013-11-06 07:15:00
2:35 AM,52.9,51.4,95,30.37,10.0,NE,3.5,-,N/A,,Scattered Clouds,40,2013-11-06 07:35:00
2:55 AM,52.2,51.4,97,30.36,10.0,Calm,Calm,-,N/A,,Clear,0,2013-11-06 07:55:00
3:15 AM,52.0,51.4,98,30.35,10.0,Calm,Calm,-,N/A,,Clear,0,2013-11-06 08:15:00
3:35 AM,50.5,50.5,100,30.35,10.0,Calm,Calm,-,N/A,,Clear,0,2013-11-06 08:35:00
3:55 AM,50.0,50.0,100,30.35,10.0,Calm,Calm,-,N/A,,Clear,0,2013-11-06 08:55:00
4:15 AM,50.7,50.7,100,30.34,10.0,ENE,3.5,-,N/A,,Clear,60,2013-11-06 09:15:00
4:35 AM,49.6,49.6,100,30.34,10.0,NE,3.5,-,N/A,,Scattered Clouds,40,2013-11-06 09:35:00
4:55 AM,49.8,49.8,100,30.34,10.0,Calm,Calm,-,N/A,,Scattered Clouds,0,2013-11-06 09:55:00
5:15 AM,50.2,50.2,100,30.34,10.0,NE,3.5,-,N/A,,Clear,40,2013-11-06 10:15:00
5:35 AM,51.6,51.6,100,30.34,10.0,NE,4.6,-,N/A,,Clear,50,2013-11-06 10:35:00
5:55 AM,51.3,51.3,100,30.34,10.0,NE,4.6,-,N/A,,Clear,50,2013-11-06 10:55:00
6:15 AM,51.1,51.1,100,30.34,10.0,NE,4.6,-,N/A,,Clear,50,2013-11-06 11:15:00
6:35 AM,50.9,50.9,100,30.34,10.0,NE,4.6,-,N/A,,Clear,50,2013-11-06 11:35:00
6:55 AM,50.5,50.5,100,30.34,10.0,NE,3.5,-,N/A,,Clear,40,2013-11-06 11:55:00
7:15 AM,50.5,50.5,100,30.35,10.0,NE,3.5,-,N/A,,Clear,40,2013-11-06 12:15:00
7:35 AM,51.1,50.9,99,30.34,10.0,NNE,4.6,-,N/A,,Clear,30,2013-11-06 12:35:00
7:55 AM,52.5,51.3,95,30.35,10.0,NE,4.6,-,N/A,,Clear,40,2013-11-06 12:55:00
8:15 AM,53.8,51.8,93,30.35,10.0,NE,4.6,-,N/A,,Clear,40,2013-11-06 13:15:00
8:35 AM,55.2,52.5,91,30.36,10.0,ENE,6.9,-,N/A,,Clear,70,2013-11-06 13:35:00
8:55 AM,56.7,52.9,87,30.36,10.0,ENE,10.4,-,N/A,,Clear,60,2013-11-06 13:55:00
9:15 AM,58.5,53.4,83,30.36,10.0,ENE,5.8,-,N/A,,Clear,60,2013-11-06 14:15:00
9:35 AM,60.3,54.3,81,30.36,10.0,NE,5.8,-,N/A,,Clear,40,2013-11-06 14:35:00
9:55 AM,61.3,54.9,79,30.36,10.0,East,6.9,-,N/A,,Clear,80,2013-11-06 14:55:00
10:15 AM,61.3,54.7,79,30.36,10.0,NE,5.8,-,N/A,,Clear,40,2013-11-06 15:15:00
10:35 AM,63.1,55.4,76,30.35,10.0,ENE,4.6,-,N/A,,Clear,70,2013-11-06 15:35:00
10:55 AM,64.6,55.9,74,30.34,10.0,ENE,5.8,-,N/A,,Clear,60,2013-11-06 15:55:00
11:15 AM,65.5,56.3,72,30.34,10.0,East,3.5,-,N/A,,Clear,90,2013-11-06 16:15:00
11:35 AM,66.6,56.8,71,30.33,10.0,ENE,3.5,-,N/A,,Clear,70,2013-11-06 16:35:00
11:55 AM,67.6,57.2,69,30.32,10.0,East,5.8,-,N/A,,Clear,80,2013-11-06 16:55:00
12:15 PM,67.8,57.4,69,30.30,10.0,ENE,6.9,-,N/A,,Clear,60,2013-11-06 17:15:00
12:35 PM,69.3,57.9,67,30.29,10.0,East,5.8,-,N/A,,Clear,80,2013-11-06 17:35:00
12:55 PM,70.5,58.5,66,30.28,10.0,ENE,6.9,-,N/A,,Clear,70,2013-11-06 17:55:00
1:15 PM,70.7,58.6,66,30.26,10.0,East,3.5,9.2,N/A,,Clear,90,2013-11-06 18:15:00
1:35 PM,72.0,59.2,64,30.26,10.0,ENE,6.9,-,N/A,,Clear,60,2013-11-06 18:35:00
1:55 PM,71.8,59.2,64,30.25,10.0,NE,5.8,-,N/A,,Clear,40,2013-11-06 18:55:00
2:15 PM,72.7,59.4,63,30.24,10.0,North,-9999.0,-,N/A,,Clear,0,2013-11-06 19:15:00
2:35 PM,71.1,59.0,66,30.24,10.0,East,3.5,-,N/A,,Scattered Clouds,90,2013-11-06 19:35:00
2:55 PM,71.2,59.4,66,30.24,10.0,ENE,6.9,-,N/A,,Mostly Cloudy,70,2013-11-06 19:55:00
3:15 PM,72.1,59.4,64,30.23,10.0,NE,3.5,-,N/A,,Scattered Clouds,50,2013-11-06 20:15:00
3:35 PM,71.8,59.2,64,30.23,10.0,East,5.8,-,N/A,,Clear,90,2013-11-06 20:35:00
3:55 PM,70.9,59.4,67,30.22,10.0,ENE,3.5,-,N/A,,Scattered Clouds,60,2013-11-06 20:55:00
4:15 PM,69.8,59.9,71,30.22,10.0,Calm,Calm,-,N/A,,Scattered Clouds,0,2013-11-06 21:15:00
4:35 PM,69.1,60.6,74,30.22,10.0,Calm,Calm,-,N/A,,Mostly Cloudy,0,2013-11-06 21:35:00
4:55 PM,70.0,61.2,73,30.22,10.0,Calm,Calm,-,N/A,,Overcast,0,2013-11-06 21:55:00
5:15 PM,70.0,60.6,72,30.21,10.0,Calm,Calm,-,N/A,,Overcast,0,2013-11-06 22:15:00
5:35 PM,68.2,61.0,78,30.21,10.0,Calm,Calm,-,N/A,,Overcast,0,2013-11-06 22:35:00
5:55 PM,65.3,61.7,88,30.21,10.0,Calm,Calm,-,N/A,,Mostly Cloudy,0,2013-11-06 22:55:00
6:15 PM,63.3,61.2,93,30.21,10.0,Calm,Calm,-,N/A,,Mostly Cloudy,0,2013-11-06 23:15:00
6:35 PM,62.2,61.0,96,30.21,10.0,Calm,Calm,-,N/A,,Mostly Cloudy,0,2013-11-06 23:35:00
6:55 PM,61.3,60.6,97,30.22,10.0,Calm,Calm,-,N/A,,Mostly Cloudy,0,2013-11-06 23:55:00
7:15 PM,59.9,59.5,99,30.22,10.0,Calm,Calm,-,N/A,,Scattered Clouds,0,2013-11-07 00:15:00
7:35 PM,58.8,58.8,100,30.21,10.0,Calm,Calm,-,N/A,,Clear,0,2013-11-07 00:35:00
7:55 PM,57.9,57.9,100,30.21,10.0,Calm,Calm,-,N/A,,Clear,0,2013-11-07 00:55:00
8:15 PM,57.7,57.7,100,30.20,10.0,Calm,Calm,-,N/A,,Clear,0,2013-11-07 01:15:00
8:35 PM,57.7,57.7,100,30.20,10.0,Calm,Calm,-,N/A,,Clear,0,2013-11-07 01:35:00
8:55 PM,55.6,55.6,100,30.20,10.0,Calm,Calm,-,N/A,,Clear,0,2013-11-07 01:55:00
9:15 PM,55.4,55.4,100,30.19,10.0,Calm,Calm,-,N/A,,Clear,0,2013-11-07 02:15:00
9:35 PM,54.9,54.9,100,30.19,10.0,Calm,Calm,-,N/A,,Clear,0,2013-11-07 02:35:00
9:55 PM,54.3,54.3,100,30.19,7.0,Calm,Calm,-,N/A,,Clear,0,2013-11-07 02:55:00
10:15 PM,54.0,54.0,100,30.19,7.0,Calm,Calm,-,N/A,,Clear,0,2013-11-07 03:15:00
10:35 PM,53.2,53.2,100,30.19,7.0,Calm,Calm,-,N/A,,Clear,0,2013-11-07 03:35:00
10:55 PM,52.9,52.9,100,30.18,7.0,Calm,Calm,-,N/A,,Clear,0,2013-11-07 03:55:00
11:15 PM,52.3,52.3,100,30.18,7.0,Calm,Calm,-,N/A,,Clear,0,2013-11-07 04:15:00
11:35 PM,51.8,51.8,100,30.18,7.0,Calm,Calm,-,N/A,,Clear,0,2013-11-07 04:35:00
11:55 PM,51.4,51.4,100,30.17,10.0,Calm,Calm,-,N/A,,Clear,0,2013-11-07 04:55:00